Regional Weather Roundup
Issued by NWS Green Bay, WI

Home | Current Version | Previous Version | Graphics & Text | Print | Product List | Glossary Off
Versions: 1 2 3 4 5 6 7 8 9 10 11 12 13 14 15 16 17 18 19 20 21 22 23 24 25 26 27 28 29 30 31 32 33 34 35 36 37 38 39 40 41 42 43 44 45 46 47 48 49 50

000
ASUS43 KGRB 190100
RWRGRB

NORTH-CENTRAL AND NORTHEAST WISCONSIN REGIONAL WEATHER ROUNDUP
NATIONAL WEATHER SERVICE GREEN BAY WI
700 PM CST SAT FEB 18 2017

WIZ005-009-010>012-018-019-190200-
NORTH CENTRAL WISCONSIN

CITY           SKY/WX    TMP DP  RH WIND       PRES   REMARKS
IRONWOOD       PTCLDY    46  29  51 SW6       29.73R
MANITOWISH WTR NOT AVBL
ARBOR VITAE    NOT AVBL
EAGLE RIVER    NOT AVBL
LAND O LAKES   CLEAR     34  26  71 CALM      29.73R
RHINELANDER    CLEAR     45  28  51 W8        29.75R
PHILLIPS       PTCLDY    44  30  58 SW3       29.76R
ANTIGO         NOT AVBL
TOMAHAWK       NOT AVBL
MERRILL        NOT AVBL
$$

WIZ013-073-190200-
NORTHEAST WISCONSIN

CITY           SKY/WX    TMP DP  RH WIND       PRES   REMARKS
IRON MOUNTAIN  CLEAR     49  24  37 W5        29.69R
MARINETTE      CLEAR     48  32  53 W6        29.71R
$$

WIZ017-030-035>037-045-190200-
CENTRAL WISCONSIN

CITY           SKY/WX    TMP DP  RH WIND       PRES   REMARKS
MEDFORD        NOT AVBL
WAUSAU         PTCLDY    44  31  60 NW5       29.76R
MOSINEE        MOCLDY    45  32  61 W8        29.78R
MARSHFIELD     PTCLDY    44  30  57 W7        29.77R
WISC RAPIDS    PTCLDY    49  28  44 W5        29.80R
STEVENS POINT  NOT AVBL
WAUPACA        PTCLDY    46  29  51 CALM      29.78R
SHAWANO        CLEAR     47  32  55 SW3       29.75R
CLINTONVILLE   CLEAR     45  30  57 W5        29.76R
WAUTOMA        PTCLDY    39  30  70 CALM      29.79R
$$

WIZ038-039-048-051-190200-
FOX VALLEY

CITY           SKY/WX    TMP DP  RH WIND       PRES   REMARKS
NWS GREEN BAY  CLEAR     47  33  58 W7        29.75R
APPLETON       PTCLDY    43  27  52 W10       29.75R
OSHKOSH        CLEAR     48  30  49 W6        29.77R
FOND DU LAC    CLEAR     42  29  59 SW6       29.78R
$$

WIZ022-050-052-190200-
EAST CENTRAL WISCONSIN

CITY           SKY/WX    TMP DP  RH WIND       PRES   REMARKS
EPHRAIM        NOT AVBL
WASHINGTON ISL FAIR      41  32  69 SW10      29.68R
STURGEON BAY   CLEAR     47  33  58 W12       29.72R
MANITOWOC      NOT AVBL
SHEBOYGAN      CLEAR     44  32  62 SW6       29.76R
$$

LMZ563-521-522-541>543-190200-
LAKESHORE

STATION/POSITION TIME  TEMP    WIND        PRES    VSBY  WAVE
                       AIR SEA DIR/SP/G                  HT/PER
                 (UTC) (F)     (DEG/KT/KT) (MB)    (MI)  (FT/S)
SHEBOYGAN LKSHOR 0000   55     240/  7/  8 1006.9R
KEWAUNEE LKSHORE 0030   49     280/  6/ 11 1006.0R
NORTHPORT PIER   0040   51     230/  5/  8 1005.4R
SISTER BAY LKSHO 0005   51     240/ 12/ 14   N/A
CHAMBERS ISLAND  0040   47     200/  8/ 15 1005.4R
MENOMINEE LKSHOR 0030   51     230/ 12/ 16 1005.1R
$$




USA.gov is the U.S. government's official web portal to all federal, state and local government web resources and services.